Location: Brookwood
(51.3000°N, 0.6333°W)
Time: 00:28:39
(UTC+00:00)

Daily predictions for brighter satellites

Satellite Brightness Start Highest point End
(mag) Time Altitude Azimuth Time Altitude Azimuth Time Altitude Azimuth
STARLINK-1366 3.2 00:00:06 10° W 00:03:13 68° N 00:06:20 10° ENE
Cosmos 2227 Rocket 2.4 00:01:24 10° NW 00:06:58 57° WSW 00:10:10 25° S
STARLINK-1338 3.6 00:03:18 10° W 00:07:17 78° NNW 00:11:18 10° ENE
Landsat 4 3.6 00:04:09 10° NNE 00:07:53 74° ESE 00:09:24 34° S
STARLINK-1216 4.4 00:04:32 10° W 00:08:14 31° SW 00:08:47 30° SSW
Cosmos 1763 Rocket 3.8 00:05:57 26° S 00:08:32 50° ESE 00:13:26 10° NNE
STARLINK-52 3.4 00:07:20 10° W 00:10:31 62° N 00:13:43 10° E
Cosmos 2084 Rocket 3.6 00:06:38 10° NW 00:11:06 81° NE 00:14:58 14° SE
Cosmos 1356 Rocket 3.7 00:07:49 10° NNW 00:11:58 57° W 00:13:55 29° SSW
STARLINK-1237 4.5 00:09:33 10° W 00:13:11 29° SW 00:13:34 29° SSW
SL-14 R/B 3.9 00:11:47 24° SW 00:13:46 45° WNW 00:17:30 10° N
STARLINK-1371 3.7 00:11:41 10° W 00:15:39 75° N 00:19:36 10° ENE
SL-16 R/B 4.0 00:12:46 10° ESE 00:18:06 32° ENE 00:23:27 10° N
STARLINK-1341 3.7 00:16:03 10° W 00:20:02 73° N 00:24:01 10° ENE
Nadezhda 1 Rocket 4.0 00:15:09 10° NNW 00:21:23 74° W 00:25:27 23° S
CZ-4 R/B 4.0 00:17:38 10° NNE 00:22:20 60° ESE 00:24:50 26° S
Cosmos 1300 4.0 00:19:20 10° NNW 00:22:40 29° W 00:24:09 22° SW
STARLINK-1374 3.7 00:20:24 10° W 00:24:24 72° N 00:28:24 10° ENE
STARLINK 1040 2.9 00:26:21 44° ESE 00:26:21 44° ESE 00:28:26 10° ENE
STARLINK-1444 2.2 00:24:00 10° WNW 00:26:10 70° NNE 00:26:51 37° E
SL-16 R/B 4.4 00:24:42 10° ESE 00:26:32 12° E 00:28:22 10° ENE
STARLINK-1452 2.1 00:24:39 10° WNW 00:26:48 71° NNE 00:27:17 46° E
Cosmos 2285 Rocket 4.0 00:20:33 10° NNW 00:26:58 88° ENE 00:31:54 18° SSE
STARLINK-1392 2.1 00:25:27 10° WNW 00:27:26 67° NNW 00:27:26 67° NNW
STARLINK-1399 2.1 00:25:30 10° WNW 00:27:36 71° N 00:27:36 71° N
STARLINK-1393 2.1 00:25:32 10° WNW 00:27:35 70° N 00:27:35 70° N
STARLINK-1394 2.1 00:25:33 10° WNW 00:27:36 70° N 00:27:36 70° N
STARLINK-1395 2.4 00:25:37 10° WNW 00:27:24 55° NW 00:27:24 55° NW
STARLINK-1397 2.1 00:25:36 10° WNW 00:27:44 71° NNE 00:27:44 71° NNE
STARLINK-1396 2.1 00:25:37 10° WNW 00:27:42 71° N 00:27:42 71° N
STARLINK-1414 2.1 00:25:37 10° WNW 00:27:36 67° NNW 00:27:36 67° NNW
STARLINK-1408 2.2 00:25:41 10° WNW 00:27:38 66° NNW 00:27:38 66° NNW
STARLINK-1404 2.1 00:25:42 10° WNW 00:27:49 71° NNE 00:27:49 71° NNE
STARLINK-1416 2.1 00:25:44 10° WNW 00:27:44 68° NNW 00:27:44 68° NNW
STARLINK-1415 2.1 00:25:44 10° WNW 00:27:51 71° NNE 00:27:56 69° NE
STARLINK-1406 2.2 00:25:47 10° WNW 00:27:41 64° NNW 00:27:41 64° NNW
STARLINK-1450 2.1 00:25:46 10° WNW 00:27:54 71° NNE 00:28:00 69° NE
STARLINK-1401 2.1 00:25:47 10° WNW 00:27:55 71° NNE 00:28:00 69° NE
STARLINK-1417 2.1 00:25:51 10° WNW 00:27:58 71° NNE 00:28:04 69° NE
STARLINK-1413 2.1 00:25:52 10° WNW 00:27:59 71° NNE 00:28:05 69° NE
STARLINK-1402 2.1 00:25:52 10° WNW 00:27:59 71° NNE 00:28:04 70° NE
STARLINK-1419 2.1 00:25:53 10° WNW 00:27:59 71° N 00:27:59 71° N
STARLINK-1422 2.1 00:25:57 10° WNW 00:28:06 71° NNE 00:28:09 70° NNE
STARLINK-1453 2.1 00:25:58 10° WNW 00:28:07 71° NNE 00:28:18 64° ENE
STARLINK-1398 2.1 00:26:00 10° WNW 00:28:09 72° NNE 00:28:28 56° ENE
STARLINK-1420 2.1 00:26:02 10° WNW 00:28:10 71° NNE 00:28:17 68° NE
STARLINK-1440 2.1 00:26:04 10° WNW 00:28:12 72° NNE 00:28:21 66° NE
STARLINK-1460 2.1 00:26:04 10° WNW 00:28:13 72° NNE 00:28:21 68° NE
STARLINK-1436 (VISORSAT) 2.1 00:26:04 10° WNW 00:28:14 72° NNE 00:28:34 55° ENE
STARLINK-1410 2.1 00:26:09 10° WNW 00:28:17 72° NNE 00:28:22 69° NE
STARLINK-1423 2.1 00:26:10 10° WNW 00:28:16 71° N 00:28:16 71° N
STARLINK-1421 2.1 00:26:10 10° WNW 00:28:16 71° N 00:28:16 71° N
STARLINK-1400 2.1 00:26:09 10° WNW 00:28:18 72° NNE 00:28:24 69° NE
STARLINK-1454 2.1 00:26:11 10° WNW 00:28:19 72° NNE 00:28:26 68° NE
STARLINK-1458 2.1 00:26:14 10° WNW 00:28:21 72° NNE 00:28:24 71° NNE
STARLINK-1445 2.1 00:26:16 10° WNW 00:28:25 72° NNE 00:28:35 65° ENE
STARLINK-1407 2.1 00:26:18 10° WNW 00:28:26 72° NNE 00:28:35 66° NE
STARLINK-1405 2.3 00:26:20 10° WNW 00:28:09 57° NW 00:28:09 57° NW
STARLINK-1446 2.1 00:26:19 10° WNW 00:28:27 72° NNE 00:28:37 66° ENE
STARLINK-1370 2.1 00:26:21 10° WNW 00:28:29 72° NNE 00:28:37 67° NE
STARLINK-1439 2.3 00:26:24 10° WNW 00:28:12 57° NW 00:28:12 57° NW
STARLINK-1456 2.1 00:26:23 10° WNW 00:28:30 72° NNE 00:28:32 71° NNE
STARLINK-1457 2.1 00:26:23 10° WNW 00:28:30 72° NNE 00:28:33 71° NNE
STARLINK-1451 2.1 00:26:23 10° WNW 00:28:30 72° NNE 00:28:33 71° NNE
STARLINK-1409 2.1 00:26:23 10° WNW 00:28:31 72° NNE 00:28:34 71° NNE
STARLINK-1447 2.1 00:26:24 10° WNW 00:28:32 72° NNE 00:28:41 67° NE
STARLINK-1455 2.1 00:26:24 10° WNW 00:28:32 72° NNE 00:28:41 67° NE
STARLINK-1437 2.1 00:26:25 10° WNW 00:28:33 72° NNE 00:28:38 70° NE
STARLINK-1441 2.1 00:26:26 10° WNW 00:28:34 72° NNE 00:28:44 66° ENE
STARLINK-1443 2.1 00:26:29 10° WNW 00:28:37 72° NNE 00:28:52 61° ENE
STARLINK-1351 2.1 00:26:30 10° WNW 00:28:39 72° NNE 00:28:49 66° ENE
STARLINK-1418 2.1 00:26:30 10° WNW 00:28:39 72° NNE 00:28:48 67° NE
STARLINK-1339 3.8 00:24:40 10° W 00:28:39 71° N 00:32:38 10° ENE
STARLINK-1403 2.1 00:26:31 10° WNW 00:28:39 72° NNE 00:28:52 63° ENE
STARLINK-1434 2.1 00:26:31 10° WNW 00:28:40 72° NNE 00:28:54 61° ENE
STARLINK-1442 2.1 00:26:32 10° WNW 00:28:40 72° NNE 00:28:50 66° ENE
STARLINK-1448 2.1 00:26:34 10° WNW 00:28:41 72° N 00:28:51 66° NE
STARLINK-1433 2.1 00:26:34 10° WNW 00:28:43 72° NNE 00:28:51 67° NE
STARLINK-1449 2.1 00:26:37 10° WNW 00:28:45 72° NNE 00:28:57 64° ENE
STARLINK-1438 2.1 00:26:40 10° WNW 00:28:47 72° NNE 00:28:49 72° NNE
STARLINK-1411 2.1 00:26:47 10° WNW 00:28:55 72° NNE 00:29:01 69° NE
STARLINK-1412 2.1 00:26:47 10° WNW 00:28:55 72° NNE 00:29:05 66° ENE
CZ-2D R/B 4.1 00:27:30 10° NE 00:30:57 18° E 00:34:23 10° SE
Cosmos-2242 3.4 00:27:29 10° N 00:31:42 56° ENE 00:34:23 21° SSE
Meteor 2-10 Rocket 3.4 00:26:59 10° NNW 00:32:11 87° WSW 00:35:16 24° S
STARLINK-1377 3.8 00:29:05 10° W 00:33:05 70° N 00:37:06 10° ENE
USA 81 4.3 00:30:17 23° SSE 00:33:34 61° E 00:38:47 10° NNE
BREEZE-M R/B 3.2 00:28:56 10° WSW 00:35:50 65° S 00:39:19 10° E
USA 215 3.3 00:29:29 10° SE 00:35:58 61° SW 00:42:28 10° WNW
STARLINK-42 3.9 00:36:26 29° SE 00:36:26 29° SE 00:39:01 10° E
Cosmos 1626 Rocket 3.8 00:34:39 25° SSW 00:37:00 59° WNW 00:41:21 10° N
STARLINK-1353 3.8 00:33:25 10° W 00:37:25 69° N 00:41:26 10° E
Meteor 1-21 Rocket 4.3 00:34:27 24° S 00:38:01 77° E 00:43:52 10° NNE
STARLINK-60 2.8 00:35:25 10° WNW 00:38:36 86° SSW 00:41:48 10° ESE
FALCON 9 DEB 3.5 00:35:29 10° WNW 00:38:55 65° N 00:42:22 10° E
STARLINK-41 3.9 00:40:10 29° SE 00:40:10 29° SE 00:42:41 10° E
STARLINK-1375 3.8 00:37:47 10° W 00:41:48 69° N 00:45:49 10° E
STARLINK-1272 4.3 00:42:02 26° SSE 00:42:12 26° SE 00:45:12 10° E
SeaSat 1 3.5 00:37:58 10° NNE 00:42:35 41° NW 00:47:10 10° WSW
Cosmos 540 Rocket 3.9 00:41:07 24° S 00:44:02 52° ESE 00:49:00 10° NNE
STARLINK-1350 3.9 00:42:08 10° W 00:46:08 68° N 00:50:09 10° E
STARLINK-1307 4.3 00:46:48 27° SSE 00:47:20 29° SE 00:50:35 10° E
Helios 1B rocket 2.4 00:44:02 10° NNE 00:48:12 87° WNW 00:50:24 27° SSW
NOSS 7 (H) 4.4 00:46:44 26° WSW 00:48:16 64° NW 00:51:13 10° NE
STARLINK-1352 3.9 00:46:24 10° W 00:50:23 68° N 00:54:24 10° E
STARLINK-1290 4.3 00:50:11 28° SSE 00:50:50 30° SE 00:54:07 10° E
STARLINK-1368 3.9 00:51:00 10° W 00:55:01 67° N 00:59:01 10° E
Cosmos 1980 Rocket 2.5 00:51:50 23° S 00:55:17 56° ESE 01:00:49 10° NE
ERBS 4.1 00:53:36 10° W 00:55:10 17° WSW 00:55:10 17° WSW
Meteor 1-29 2.8 00:53:23 10° NNE 00:56:45 77° ESE 00:58:11 32° S
STARLINK-1317 4.1 00:56:33 29° S 00:57:45 36° SE 01:01:21 10° E
Cosmos 1626 4.4 00:55:30 10° WSW 00:57:53 16° WNW 01:00:17 10° NNW
Cosmos 468 Rocket 4.3 00:54:20 19° SW 00:57:55 60° WNW 01:03:02 10° NNE
Cosmos 1455 2.5 00:54:47 10° NNW 00:58:27 51° W 01:00:05 28° SSW
STARLINK-1369 3.9 00:55:26 10° W 00:59:27 67° N 01:03:28 10° E
STARLINK-55 3.1 01:00:33 35° SSW 01:01:30 49° SSE 01:04:37 10° ENE
Cosmos 1328 3.9 00:59:35 26° S 01:01:43 73° E 01:05:43 10° NNE
STARLINK-1274 4.0 01:00:56 30° S 01:01:46 34° SSE 01:05:01 10° E
Cosmos 1812 Rocket 4.5 00:57:59 10° NNW 01:02:03 35° W 01:04:13 22° SW
STARLINK-43 3.2 01:00:05 17° WSW 01:02:47 78° SSE 01:06:29 10° ENE
STARLINK-1372 3.9 00:59:40 10° W 01:03:40 67° N 01:07:41 10° E
Cosmos 1937 Rocket 4.2 00:59:30 10° NW 01:04:23 39° WSW 01:07:10 22° SSW
STARLINK-1291 4.0 01:04:15 29° S 01:05:26 38° SSE 01:08:55 10° E
Cosmos 2369 3.7 01:02:04 20° SW 01:06:05 80° WNW 01:11:48 10° NNE
Lacrosse 4 Rocket 2.8 01:02:53 10° WNW 01:06:16 23° WSW 01:07:20 21° SW
Cosmos 1703 3.2 01:05:53 27° S 01:07:59 88° WNW 01:11:56 10° N
STARLINK-1378 3.9 01:04:19 10° W 01:08:20 67° N 01:12:21 10° E
STARLINK-1264 3.9 01:07:26 28° SSW 01:08:45 39° SSE 01:12:16 10° ENE
ADEOS II 4.4 01:05:49 10° NE 01:08:56 16° E 01:12:03 10° ESE
Cosmos 2263 Rocket 2.3 01:03:32 10° NNW 01:09:11 75° ENE 01:14:45 10° SE
Timation 1 Rocket 4.3 01:04:42 10° NW 01:10:42 75° WSW 01:16:19 12° SSE
Cosmos 1825 Rocket 3.5 01:08:39 25° SSW 01:11:11 83° W 01:15:35 10° N
STARLINK-29 2.8 01:08:11 10° WNW 01:11:24 88° SSW 01:14:36 10° ESE
STARLINK-1267 3.8 01:10:39 28° SSW 01:12:05 41° SSE 01:15:38 10° ENE
Cosmos 2297 Rocket 3.9 01:08:57 10° WNW 01:12:29 17° W 01:14:46 14° SW
STARLINK-1379 3.9 01:08:48 10° W 01:12:50 67° N 01:16:51 10° E
SL-4 R/B 2.3 01:08:03 10° WNW 01:12:51 63° SSW 01:17:31 10° ESE
STARLINK-28 2.9 01:11:33 28° SW 01:13:00 61° SSE 01:16:10 10° ENE
USA 229 DEB 3.9 01:07:19 10° NW 01:14:33 89° NE 01:22:10 10° SE
USA 229 3.9 01:07:26 10° NW 01:14:39 89° NE 01:22:16 10° SE
NOSS 3-1 (C) 4.0 01:08:03 10° NW 01:15:23 86° SW 01:23:55 10° SE
UNK 4.2 01:11:40 10° SSE 01:16:05 58° ENE 01:20:36 10° N
STARLINK-1329 3.9 01:12:36 10° W 01:16:39 68° N 01:20:41 10° E
Cosmos 372 Rocket 4.0 01:11:57 10° NNW 01:17:02 61° WSW 01:20:47 18° S
STARLINK-1207 3.7 01:17:09 26° SSW 01:18:50 45° SSE 01:22:25 10° ENE
PSLV R/B 4.3 01:14:34 10° N 01:18:51 46° WNW 01:21:39 19° SW
STARLINK-1362 3.9 01:17:09 10° W 01:21:11 68° N 01:25:14 10° E
Cosmos 2184 Rocket 4.4 01:16:26 15° SSE 01:21:31 58° E 01:27:33 10° NNE
CZ-4C R/B 2.6 01:16:43 12° WSW 01:21:40 63° NW 01:28:00 10° NE
Cosmos 2360 4.3 01:17:45 19° SW 01:21:57 79° WNW 01:27:42 10° NNE
STARLINK-1266 3.7 01:20:25 25° SSW 01:22:13 47° SSE 01:25:51 10° ENE
BREEZE-M DEB (TANK) 3.4 01:23:14 18° SE 01:23:14 18° SE 01:24:36 10° E
STARLINK-33 2.8 01:21:40 26° SW 01:23:12 63° SSE 01:26:17 10° ENE
NOSS 3-1 (A) 4.2 01:16:14 10° NW 01:23:31 80° NE 01:32:02 10° SE
STARLINK-1284 3.6 01:23:40 24° SW 01:25:36 49° SSE 01:29:15 10° ENE
STARLINK-1373 3.9 01:21:41 10° W 01:25:43 69° N 01:29:44 10° E
STARLINK-1320 3.2 01:22:54 10° WNW 01:26:01 67° N 01:29:07 10° E
Alouette 2 Rocket 4.4 01:21:37 10° NNW 01:26:05 35° W 01:28:05 21° SW
STARLINK-1322 3.2 01:23:14 10° WNW 01:26:22 67° N 01:29:29 10° E
STARLINK-26 3.0 01:24:27 20° WSW 01:26:38 69° SSE 01:30:04 10° ENE
STARLINK-1324 3.2 01:23:33 10° WNW 01:26:41 67° N 01:29:47 10° E
BREEZE-M DEB (TANK) 1.0 01:24:08 10° W 01:26:54 62° S 01:29:12 10° E
STARLINK-1294 3.2 01:23:52 10° WNW 01:26:59 67° N 01:30:07 10° E
STARLINK-1261 3.2 01:24:15 10° WNW 01:27:22 67° N 01:30:29 10° E
STARLINK-1325 3.2 01:24:36 10° WNW 01:27:43 67° N 01:30:50 10° E
STARLINK-1333 3.2 01:24:58 10° WNW 01:28:05 68° N 01:31:12 10° E
STARLINK-1334 3.2 01:25:15 10° WNW 01:28:22 68° N 01:31:30 10° E
STARLINK-1326 3.2 01:25:35 10° WNW 01:28:41 68° N 01:31:49 10° E
Cosmos 1869 4.3 01:25:18 10° N 01:29:01 43° ENE 01:32:43 10° SSE
STARLINK-1258 3.6 01:26:59 23° SW 01:29:02 52° SSE 01:32:42 10° ENE
STARLINK-1323 3.2 01:25:58 10° WNW 01:29:05 68° N 01:32:12 10° E
STARLINK-1349 3.2 01:26:15 10° WNW 01:29:23 68° N 01:32:30 10° E
Cosmos 2150 Rocket 4.0 01:24:33 10° NNW 01:29:41 64° WSW 01:33:54 15° S
STARLINK-1336 3.2 01:26:35 10° WNW 01:29:42 68° N 01:32:49 10° E
STARLINK-1331 3.2 01:26:58 10° WNW 01:30:05 68° N 01:33:12 10° E
STARLINK-1390 3.9 01:26:17 10° W 01:30:19 70° N 01:34:23 10° E
STARLINK-1344 3.2 01:27:16 10° WNW 01:30:23 68° N 01:33:31 10° E
STARLINK-1343 3.2 01:27:39 10° WNW 01:30:46 68° N 01:33:53 10° E
STARLINK-1346 3.2 01:27:55 10° WNW 01:31:04 69° N 01:34:13 10° E
STARLINK-1328 3.2 01:28:22 10° WNW 01:31:29 69° N 01:34:36 10° E
STARLINK-1354 3.2 01:28:39 10° WNW 01:31:47 69° N 01:34:54 10° E
STARLINK-1347 3.2 01:28:57 10° WNW 01:32:04 69° N 01:35:11 10° E
ATLAS CENTAUR R/B 4.4 01:30:44 10° NNW 01:32:25 12° N 01:34:05 10° NNE
STARLINK-1292 3.5 01:30:17 22° SW 01:32:28 54° SSE 01:36:09 10° ENE
STARLINK-1357 3.2 01:29:22 10° WNW 01:32:30 69° N 01:35:37 10° E
STARLINK-1335 3.2 01:29:39 10° WNW 01:32:47 69° N 01:35:54 10° E
Cosmos 1814 Rocket 4.1 01:29:12 19° SSW 01:33:05 74° WNW 01:38:24 10° NNE
STARLINK-1327 3.2 01:30:01 10° WNW 01:33:08 69° N 01:36:14 10° E
STARLINK-1340 3.1 01:30:18 10° WNW 01:33:26 70° N 01:36:33 10° E
STARLINK-1356 3.1 01:30:41 10° WNW 01:33:49 70° N 01:36:56 10° E
STARLINK-1345 3.1 01:31:00 10° WNW 01:34:08 70° N 01:37:14 10° E
Cosmos 2322 Rocket 3.5 01:29:42 12° SSE 01:34:11 31° ESE 01:39:03 10° NE
STARLINK-1355 3.1 01:31:22 10° WNW 01:34:29 70° N 01:37:36 10° E
STARLINK-1321 3.1 01:31:43 10° WNW 01:34:50 70° N 01:37:57 10° E
SJ 16-02 3.6 01:34:10 10° W 01:35:02 10° W 01:35:52 10° WSW
STARLINK-1358 3.1 01:32:05 10° WNW 01:35:13 70° N 01:38:20 10° E
STARLINK-1332 3.1 01:32:23 10° WNW 01:35:30 70° N 01:38:38 10° E
STARLINK-1348 3.1 01:32:43 10° WNW 01:35:51 71° NNE 01:38:58 10° E
STARLINK-1330 3.1 01:33:03 10° WNW 01:36:10 71° N 01:39:17 10° E
STARLINK-1365 3.9 01:32:14 10° WNW 01:36:20 71° N 01:40:25 10° E
STARLINK-1363 3.1 01:33:22 10° WNW 01:36:30 71° N 01:39:37 10° E
STARLINK-1337 3.1 01:33:45 10° WNW 01:36:53 71° NNE 01:40:00 10° E
SL-19 R/B 4.4 01:31:34 10° NNE 01:37:11 76° WNW 01:41:48 17° SSW
STARLINK-1342 3.1 01:34:04 10° WNW 01:37:12 71° N 01:40:19 10° E
STARLINK-1364 3.1 01:34:25 10° WNW 01:37:33 71° NNE 01:40:40 10° E
STARLINK-1376 3.1 01:34:44 10° WNW 01:37:52 71° N 01:40:59 10° E
Cosmos 2181 Rocket 4.4 01:31:40 10° NNW 01:37:55 53° W 01:42:49 17° SSW
STARLINK-1268 2.9 01:36:29 24° SW 01:38:07 58° SSE 01:41:10 10° ENE
STARLINK-1360 3.1 01:35:05 10° WNW 01:38:13 72° N 01:41:20 10° E
STARLINK-1361 3.1 01:35:26 10° WNW 01:38:33 72° N 01:41:41 10° E
STARLINK-1367 3.1 01:35:42 10° WNW 01:38:51 73° NNE 01:42:00 10° E
STARLINK-1366 3.1 01:36:05 10° WNW 01:39:13 72° NNE 01:42:20 10° E
STARLINK-1289 3.4 01:36:52 20° SW 01:39:18 59° SSE 01:43:01 10° ENE
Resurs 1-4 Rocket 2.4 01:35:11 10° NNE 01:40:28 62° ESE 01:44:54 15° S
STARLINK-1301 3.5 01:38:35 18° SW 01:41:16 62° SSE 01:45:05 10° ENE
Cosmos 1697 Rocket 3.4 01:36:19 12° WSW 01:41:20 47° NW 01:46:49 10° NNE
STARLINK-66 2.8 01:39:32 17° WSW 01:41:56 80° SSE 01:45:09 10° ENE
Cosmos 1400 Rocket 3.3 01:38:09 10° NNW 01:42:09 47° W 01:44:46 19° SSW
Cosmos 2278 4.0 01:38:01 16° SW 01:42:36 64° NW 01:48:16 10° NNE
STARLINK-1303 3.4 01:40:12 19° SW 01:42:47 61° SSE 01:46:30 10° ENE
Cosmos 841 Rocket 3.9 01:38:49 16° SW 01:42:52 55° WNW 01:48:00 10° NNE
DELTA 2 DEB (DPAF) 4.4 01:40:14 18° S 01:43:19 51° W 01:47:42 10° NNW
Cosmos 1125 Rocket 3.4 01:38:07 10° NNW 01:43:20 76° WSW 01:48:32 10° SSE
STARLINK-1316 2.9 01:41:30 21° SW 01:43:22 63° SSE 01:46:29 10° ENE
STARLINK-1257 2.9 01:42:21 21° SW 01:44:15 64° SSE 01:47:23 10° ENE
STARLINK-1256 2.8 01:43:18 21° SW 01:45:13 64° SSE 01:48:19 10° ENE
STARLINK-58 3.1 01:44:01 23° SW 01:45:43 51° SSE 01:48:49 10° ENE
STARLINK-1213 2.8 01:44:08 20° SW 01:46:06 65° SSE 01:49:12 10° ENE
STARLINK-1312 3.4 01:43:33 17° SW 01:46:16 64° SSE 01:50:00 10° ENE
STARLINK-1338 3.8 01:42:29 10° WNW 01:46:29 73° N 01:50:28 10° E
STARLINK-52 2.8 01:43:31 10° WNW 01:46:43 64° SSW 01:49:54 10° ESE
STARLINK-1263 2.8 01:45:01 20° SW 01:47:00 66° SSE 01:50:06 10° ENE
STARLINK-1259 2.8 01:45:54 19° WSW 01:47:56 67° SSE 01:51:02 10° ENE
STARLINK-1265 2.8 01:46:15 19° WSW 01:48:19 67° SSE 01:51:29 10° ENE
STARLINK-1285 2.8 01:46:45 19° WSW 01:48:49 67° SSE 01:51:55 10° ENE
STARLINK-1296 2.8 01:48:30 18° WSW 01:50:37 69° SSE 01:53:44 10° ENE
STARLINK-1260 2.8 01:49:21 18° WSW 01:51:31 70° SSE 01:54:38 10° ENE
STARLINK-1318 2.8 01:50:13 18° WSW 01:52:25 71° SSE 01:55:33 10° ENE
STARLINK-75 2.9 01:50:26 14° WSW 01:53:09 84° SSE 01:56:24 10° ENE
STARLINK-1275 2.8 01:51:06 17° WSW 01:53:19 71° SSE 01:56:28 10° ENE
STARLINK-1309 2.8 01:51:57 17° WSW 01:54:13 72° SSE 01:57:20 10° ENE
STARLINK-1371 3.7 01:50:46 10° WNW 01:54:44 75° N 01:58:42 10° E
STARLINK-1282 2.8 01:52:48 17° WSW 01:55:06 73° SSE 01:58:14 10° ENE
Cosmos 2154 Rocket 4.3 01:49:51 11° S 01:55:48 67° E 02:01:59 10° NNE
STARLINK-1313 2.8 01:53:45 15° WSW 01:56:13 79° SSE 01:59:21 10° ENE
Meteor 1-27 4.3 01:50:49 10° NNW 01:56:18 61° W 02:01:18 13° S
STARLINK-48 3.8 01:53:48 18° SW 01:56:22 47° SSE 02:00:07 10° ENE
STARLINK-1279 2.8 01:54:39 15° WSW 01:57:09 80° SSE 02:00:17 10° ENE
STARLINK-1298 2.8 01:55:23 16° WSW 01:57:46 75° SSE 02:00:53 10° ENE
GEOS 3 Rocket 3.6 01:53:26 10° SE 01:58:38 78° SW 02:03:59 10° NW
STARLINK-1293 2.8 01:56:17 16° WSW 01:58:43 76° SSE 02:01:50 10° ENE
STARLINK-80 3.3 01:55:29 13° WSW 01:58:47 75° SSE 02:02:36 10° ENE
STARLINK-1341 3.7 01:55:09 10° WNW 01:59:08 77° NNE 02:03:07 10° E
STARLINK-1283 3.5 01:55:36 12° WSW 01:59:23 77° SSE 02:03:31 10° ENE
STARLINK 1040 3.0 01:57:20 10° W 01:59:52 57° N 02:02:24 10° ENE
Iridium 2 3.6 01:56:06 10° N 01:59:53 84° W 02:03:12 13° S
STARLINK-1255 2.8 01:58:01 15° WSW 02:00:31 77° SSE 02:03:39 10° ENE
SL-16 R/B 2.6 01:55:28 11° S 02:01:24 61° WSW 02:07:33 10° NNW
STARLINK-22 2.8 01:58:39 14° WSW 02:01:24 81° SSE 02:04:37 10° ENE
Meteor 2-2 Rocket 4.4 01:55:40 10° NNW 02:01:45 87° W 02:07:45 10° S
STARLINK-1311 2.6 02:00:03 14° WSW 02:02:32 86° SSE 02:05:30 10° ENE
SL-08 R/B 4.4 01:58:52 10° SE 02:03:14 44° ENE 02:07:37 10° N
STARLINK-1297 3.2 02:00:20 13° WSW 02:03:28 75° SSE 02:07:05 10° ENE
Cosmos 1844 Rocket 3.7 01:58:09 10° NNW 02:03:37 50° NE 02:09:02 10° SE
STARLINK-1374 3.7 01:59:37 10° WNW 02:03:38 79° NNE 02:07:39 10° E
CRYOSAT 2 4.4 02:01:53 10° N 02:06:50 86° E 02:11:31 11° S
NOSS 2-1 (E) 3.6 02:04:58 17° SSW 02:07:19 45° SE 02:10:55 10° NE
STARLINK-1339 3.6 02:03:47 10° WNW 02:07:47 80° NNE 02:11:45 10° ESE
STARLINK-1286 4.4 02:05:37 16° SSW 02:08:26 36° SE 02:12:17 10° ENE
SL-16 R/B 2.5 02:04:36 14° SSW 02:09:31 65° ESE 02:15:09 10° NE
CZ-2D R/B 2.1 02:06:25 10° NNE 02:11:40 80° WNW 02:16:21 13° SSW
STARLINK-1281 4.4 02:08:48 16° SSW 02:11:40 36° SE 02:15:30 10° ENE
STARLINK-42 2.9 02:08:41 10° WSW 02:11:49 80° NNW 02:14:57 10° ENE
Cosmos 2221 2.6 02:07:46 10° NNW 02:12:06 62° W 02:16:17 11° S
STARLINK-1377 3.6 02:08:19 10° WNW 02:12:21 83° NNE 02:16:22 10° ESE
STARLINK-1029 2.9 02:11:18 15° SW 02:13:47 63° SSE 02:16:56 10° ENE
STARLINK-60 4.1 02:11:49 10° W 02:14:24 23° SW 02:16:58 10° SSE
STARLINK-34 2.7 02:11:58 13° WSW 02:14:37 76° SSE 02:17:42 10° ENE
STARLINK-41 2.9 02:12:18 10° WSW 02:15:22 79° NNW 02:18:26 10° ENE
FALCON 9 DEB 3.1 02:12:36 10° WNW 02:16:00 61° SSW 02:19:25 10° SE
STARLINK-1310 4.3 02:13:35 15° SSW 02:16:38 39° SSE 02:20:30 10° ENE
STARLINK-1353 3.6 02:12:39 10° WNW 02:16:41 85° NNE 02:20:42 10° ESE
GP-B 4.0 02:12:53 10° NNW 02:16:57 35° W 02:20:25 13° SW
ATLAS 5 CENTAUR R/B 4.1 02:15:57 10° NNW 02:17:05 13° NNE 02:18:28 10° NE
Nadezhda 3 Rocket 4.1 02:11:04 10° NNW 02:17:23 73° W 02:23:42 10° S
CZ-4C R/B 4.4 02:14:17 14° SSW 02:17:36 34° W 02:21:40 10° NNW
Cosmos 1315 Rocket 3.1 02:14:00 10° NNW 02:17:49 50° W 02:21:25 11° S
STARLINK-62 2.7 02:15:41 12° WSW 02:18:27 79° SSE 02:21:30 10° ENE
STARLINK-1272 3.2 02:15:38 10° WSW 02:19:11 88° SSE 02:22:44 10° ENE
Cosmos 1842 Rocket 4.1 02:15:03 10° NNW 02:19:19 45° W 02:23:13 12° SSW
USA 215 4.4 02:15:21 10° S 02:19:55 20° SW 02:24:35 10° WNW
STARLINK-1375 3.6 02:17:02 10° WNW 02:21:05 87° NNE 02:25:06 10° ESE
CBERS-1 4.3 02:16:08 10° NNE 02:21:16 68° ESE 02:26:22 10° S
STARLINK-1319 4.2 02:18:21 14° SW 02:21:34 41° SSE 02:25:29 10° ENE
IRIDIUM 114 4.4 02:17:13 10° S 02:22:26 80° E 02:27:41 10° N
STARLINK-1307 3.3 02:21:21 10° WSW 02:25:05 90° NNW 02:28:50 10° ENE
STARLINK-1350 3.5 02:21:23 10° WNW 02:25:25 90° NNE 02:29:26 10° ESE
STARLINK-1277 4.2 02:23:08 13° SW 02:26:31 44° SSE 02:30:29 10° ENE
Shenzhou-11 Module 3.6 02:26:47 12° S 02:26:48 12° S 02:27:53 10° SSE
STARLINK-1290 3.3 02:24:53 10° WSW 02:28:37 87° NNW 02:32:21 10° ENE
STARLINK-1352 3.5 02:25:34 10° WNW 02:29:35 88° SSW 02:33:36 10° ESE
Cosmos 2058 2.9 02:27:00 10° S 02:31:11 87° W 02:35:26 10° N
STARLINK-1276 4.1 02:27:56 12° SW 02:31:30 47° SSE 02:35:30 10° ENE
IRIDIUM 103 4.4 02:26:23 10° S 02:31:36 87° W 02:36:52 10° N
Cosmos 2360 Rocket 3.0 02:26:22 10° S 02:31:41 45° ESE 02:37:02 10° NE
STARLINK-1368 3.5 02:30:15 10° WNW 02:34:17 85° SSW 02:38:19 10° ESE
STARLINK-1317 3.5 02:32:24 10° WSW 02:36:19 82° NNW 02:40:15 10° ENE
STARLINK-1305 4.0 02:32:42 12° SW 02:36:26 50° SSE 02:40:28 10° ENE
STARLINK-1306 4.0 02:33:14 11° SW 02:37:07 52° SSE 02:41:13 10° ENE
STARLINK-55 3.3 02:34:23 10° W 02:37:35 66° N 02:40:47 10° ENE
STARLINK-1369 3.5 02:34:41 10° WNW 02:38:43 82° SSW 02:42:45 10° ESE
STARLINK-1274 3.3 02:35:22 10° WSW 02:38:55 80° NNW 02:42:29 10° ENE
CZ-4B R/B 3.8 02:33:54 10° N 02:39:07 66° WNW 02:44:20 10° SSW
Cosmos 1980 Rocket 3.4 02:34:28 10° WSW 02:39:35 34° NW 02:44:45 10° NNE
STARLINK-43 3.7 02:37:02 10° W 02:40:43 65° N 02:44:23 10° E
STARLINK-1262 3.9 02:37:31 11° SW 02:41:26 53° SSE 02:45:29 10° ENE
STARLINK-1372 3.4 02:38:51 10° WNW 02:42:51 79° SSW 02:46:50 10° ESE
STARLINK-1291 3.5 02:39:37 10° W 02:43:22 79° NNW 02:47:07 10° ENE
Cosmos 2333 Rocket 4.1 02:41:01 10° SSE 02:45:28 24° ESE 02:49:57 10° NE
STARLINK-1300 3.9 02:42:20 10° SW 02:46:24 56° SSE 02:50:28 10° ENE
STARLINK-1264 3.5 02:42:57 10° W 02:46:41 77° NNW 02:50:27 10° ENE
STARLINK-29 4.1 02:44:37 10° W 02:47:14 23° SW 02:49:51 10° SSE
Meteor 1-28 Rocket 3.4 02:43:52 10° SSE 02:47:35 73° ENE 02:51:20 10° N
STARLINK-1378 3.5 02:43:35 10° WNW 02:47:37 76° SSW 02:51:38 10° ESE
STARLINK-28 3.4 02:45:57 10° W 02:49:09 63° N 02:52:20 10° ENE
ADEOS II 2.2 02:44:05 10° NNE 02:49:24 90° SSW 02:54:40 10° SSW
Cosmos 2219 Rocket 4.1 02:45:11 10° SSE 02:49:34 24° ESE 02:53:59 10° NE
IRIDIUM 106 4.5 02:44:46 10° SSW 02:49:57 63° W 02:55:09 10° N
STARLINK-1267 3.5 02:46:20 10° W 02:50:04 76° NNW 02:53:50 10° ENE
STARLINK-1295 3.8 02:47:16 10° SW 02:51:21 59° SSE 02:55:26 10° ENE
STARLINK-64 3.2 02:48:19 10° WSW 02:51:55 78° SSE 02:55:30 10° ENE
SL-4 R/B 3.5 02:48:19 10° W 02:51:59 22° SW 02:55:32 10° S
STARLINK-1379 3.5 02:48:05 10° WNW 02:52:07 73° SSW 02:56:08 10° ESE
IRS-1D 3.7 02:46:54 10° NNE 02:52:11 71° WNW 02:57:19 10° SSW
AQUA 4.3 02:47:41 10° N 02:52:17 48° WNW 02:56:51 10° SW
Cosmos 2263 Rocket 3.5 02:48:22 10° NW 02:52:31 22° WSW 02:56:37 10° SSW
IDEFIX/ARIANE 42P 3.9 02:47:51 10° NNE 02:52:45 37° E 02:57:36 10° SSE
Cosmos 1606 3.5 02:49:43 10° N 02:53:26 52° ENE 02:57:09 10° SSE
STARLINK-1329 3.5 02:51:55 10° WNW 02:55:56 70° SSW 02:59:58 10° ESE
STARLINK-1287 3.8 02:52:13 10° SW 02:56:19 62° SSE 03:00:25 10° ENE
STARLINK-1207 3.6 02:53:07 10° W 02:56:53 73° N 03:00:38 10° ENE
ERS-2 2.2 02:53:33 10° SSE 02:57:13 83° ENE 03:00:54 10° NNW
BREEZE-M R/B 2.4 02:54:21 10° W 02:58:06 47° SSW 03:00:35 10° ESE
ARIANE 5 R/B 2.8 02:53:33 10° NNE 02:58:35 70° ESE 03:03:33 10° S
NPP 4.4 02:53:36 10° N 02:58:39 42° WNW 03:03:41 10° SW
STARLINK-33 3.4 02:55:55 10° W 02:59:01 61° N 03:02:06 10° ENE
Cosmos 2341 Rocket 4.1 02:53:53 10° SSW 03:00:15 77° W 03:06:36 10° N
STARLINK-1266 3.6 02:56:33 10° W 03:00:17 72° N 03:04:03 10° ENE
STARLINK-1362 3.5 02:56:27 10° WNW 03:00:29 67° SSW 03:04:29 10° ESE
Cosmos 1892 3.3 02:57:14 10° SSW 03:00:52 43° WNW 03:04:31 10° N
STARLINK-1320 3.2 02:58:46 10° WNW 03:01:47 44° SSW 03:04:46 10° SE
STARLINK-1322 3.2 02:59:08 10° WNW 03:02:08 44° SSW 03:05:08 10° SE
STARLINK-1324 3.2 02:59:27 10° WNW 03:02:27 44° SSW 03:05:26 10° SE
STARLINK-1294 3.2 02:59:44 10° WNW 03:02:46 44° SSW 03:05:47 10° SE
CZ-2C R/B 4.3 02:59:40 10° NNE 03:03:07 33° E 03:06:36 10° SSE
STARLINK-1261 3.2 03:00:08 10° WNW 03:03:08 44° SSW 03:06:08 10° SE
NOSS 2-1 (C) 3.6 02:59:57 10° WSW 03:03:17 53° NW 03:07:06 10° NE
STARLINK-1325 3.2 03:00:29 10° WNW 03:03:29 43° SSW 03:06:28 10° SE
CZ-2D R/B 4.2 02:59:26 10° NNE 03:03:37 54° E 03:07:52 10° S
STARLINK-26 3.6 03:00:15 10° W 03:03:40 63° N 03:07:06 10° E
STARLINK-1284 3.6 02:59:57 10° W 03:03:42 71° N 03:07:28 10° ENE
STARLINK-1333 3.2 03:00:51 10° WNW 03:03:51 43° SSW 03:06:50 10° SE
STARLINK-1334 3.2 03:01:09 10° WNW 03:04:08 43° SSW 03:07:07 10° SE
STARLINK-1326 3.2 03:01:28 10° WNW 03:04:28 43° SSW 03:07:26 10° SE
STARLINK-1323 3.2 03:01:52 10° WNW 03:04:51 43° SSW 03:07:49 10° SE
STARLINK-1373 3.5 03:00:56 10° WNW 03:04:56 64° SSW 03:08:55 10° SE
STARLINK-1299 3.7 03:00:57 10° WSW 03:05:12 75° SSE 03:09:29 10° ENE
IRS-1C 4.2 03:00:11 10° NNE 03:05:33 83° WNW 03:10:54 10° SSW
STARLINK-1302 3.7 03:02:08 10° WSW 03:06:15 69° SSE 03:10:23 10° ENE
Cosmos 1844 3.8 03:01:37 10° NNW 03:07:27 77° WSW 03:13:14 10° SSE
